Terug naar catalogus

FENGYUN 1C DEB

ActiefSSO
NORAD 30134·DEBRIS·🇨🇳 China

Gelanceerd May 10, 1999 vanaf Taiyuan Satellite Launch Center

Loading…

Volgende Passages (komende 24 uur)

TLE

VersSource: Space-Track

Epoch: Sep 14, 2026, 12:47 UTC

1 30134U 99025SP  26257.53286631  .00000490  00000-0  28107-3 0  9996
2 30134  98.6801 273.6408 0019956 117.8015  44.4515 14.13770465 11393

Volg FENGYUN 1C DEB in realtime met AllMySat

Download on the App Store